Regional Weather Roundup
Issued by NWS

Home | Current Version | Previous Version | Text Only | Print | Product List | Glossary On
Versions: 1 2 3 4 5 6 7 8 9 10 11 12 13 14 15 16 17 18 19 20 21 22 23 24 25 26 27 28 29 30 31 32 33 34 35 36 37 38 39 40 41 42 43 44 45 46 47 48 49 50
000
ASUS44 KOUN 260210
RWROK

WEATHER ROUNDUP FOR OKLAHOMA
NATIONAL WEATHER SERVICE NORMAN OK
800 PM CST SAT FEB 25 2017

NOTE: "FAIR" INDICATES FEW OR NO CLOUDS BELOW 12,000 FEET WITH NO
      SIGNIFICANT WEATHER AND/OR OBSTRUCTIONS TO VISIBILITY.

OKZ001>007-009>012-014-015-017-260300-
NORTHWEST OKLAHOMA AND THE PANHANDLE

CITY           SKY/WX    TMP DP  RH WIND       PRES   REMARKS
GAGE           CLEAR     38  14  37 SE14      29.92F WCI  30
GUYMON         CLEAR     42  11  28 SE6       29.79F
ENID/WOODRING  PTCLDY    34  25  69 SE7       30.04F WCI  28
$$

OKZ016-021>023-033>039-044-045-260300-
SOUTHWEST OKLAHOMA

CITY           SKY/WX    TMP DP  RH WIND       PRES   REMARKS
LAWTON/FT SILL CLEAR     42  19  38 CALM      30.05S
FREDERICK      CLEAR     39  23  52 E8        30.01F WCI  33
CLINTON        CLEAR     37  18  46 S13       30.00F WCI  29
HOBART         CLEAR     35  25  66 SE10      30.03F WCI  27
ALTUS AFB      CLEAR     37  21  52 SE8       30.02F WCI  31
$$

OKZ018>020-024>031-260300-
CENTRAL OKLAHOMA

CITY           SKY/WX    TMP DP  RH WIND       PRES   REMARKS
OKLAHOMA CITY  PTCLDY    39  15  37 SE6       30.06S WCI  35
OKC/WILEY POST CLEAR     39  17  41 S8        30.07S WCI  33
OKC/TINKER AFB CLEAR     38  16  41 S7        30.05S WCI  32
STILLWATER     CLEAR     38  14  37 CALM      30.07R
GUTHRIE        CLEAR     38  18  44 SE5       30.07R WCI  34
$$

OKZ008-013-054>072-260300-
NORTHEAST OKLAHOMA

CITY           SKY/WX    TMP DP  RH WIND       PRES   REMARKS
TULSA          CLEAR     39  17  41 SE7       30.08S WCI  34
TULSA/JONES    CLEAR     42  16  34 SE5       30.09S
PONCA CITY     CLEAR     40  15  36 S3        30.07S
BARTLESVILLE   CLEAR     29  18  63 CALM      30.09F HAZE
MUSKOGEE       CLEAR     40  14  34 S3        30.12R
$$

OKZ032-040>043-046>053-073>077-260300-
SOUTH CENTRAL/SOUTHEAST OKLAHOMA

CITY           SKY/WX    TMP DP  RH WIND       PRES   REMARKS
ARDMORE/DWNTWN CLEAR     39  19  45 CALM      30.08S
MCALESTER      PTCLDY    33  25  72 CALM      30.10S
$$




USA.gov is the U.S. government's official web portal to all federal, state and local government web resources and services.